GW1255 Weather Reports


time (UTC)temp
F
wind
direction
speed
knots
gust
knots
rain 1hr
in
rain 24hr
in
rain mn
in
humidity
%
barometer
mb
20260505083603 50 335 8.7 13.9 0.00 0.00 0.00 73 1014.6
20260505082918 50 341 9.6 14.8 0.00 0.00 0.00 74 1014.7
20260505082017 49 331 8.7 12.2 0.00 0.00 0.00 74 1014.7
20260505080903 49 350 9.6 13.9 0.00 0.00 0.00 77 1014.8
20260505080004 49 338 7.8 10.4 0.00 0.00 0.00 78 1015.0
20260505075618 49 339 7.8 10.4 0.00 0.00 0.00 80 1015.1
20260505074503 49 11 7.0 10.4 0.00 0.00 0.00 81 1015.0
20260505073603 48 14 6.1 10.4 0.00 0.00 0.00 81 1015.0
20260505072703 48 354 5.2 8.7 0.00 0.00 0.00 82 1015.0
20260505071803 48 1 4.3 7.0 0.00 0.00 0.00 84 1015.2
20260505070903 47 359 5.2 9.6 0.00 0.00 0.00 84 1015.2
20260505070003 47 349 5.2 9.6 0.00 0.00 0.00 85 1015.0
20260505065403 47 357 4.3 7.8 0.00 0.00 0.00 85 1015.3
20260505064503 47 333 2.6 4.3 0.00 0.00 0.00 86 1015.2
20260505063818 47 333 4.3 6.1 0.00 0.00 0.00 86 1015.3
20260505062703 47 323 4.3 5.2 0.00 0.00 0.00 87 1015.2
20260505061803 47 353 3.5 5.2 0.00 0.00 0.00 87 1015.2
20260505060903 47 329 3.5 5.2 0.00 0.00 0.00 87 1015.1
20260505060003 47 325 3.5 5.2 0.00 0.00 0.00 87 1015.3
20260505055403 47 322 3.5 6.1 0.00 0.00 0.00 87 1015.3
20260505054504 47 330 4.3 6.1 0.00 0.00 0.00 87 1015.2
20260505053603 46 335 3.5 6.1 0.00 0.00 0.00 87 1015.2
20260505052917 46 345 2.6 6.1 0.00 0.00 0.00 88 1015.1
20260505051803 46 332 3.5 4.3 0.00 0.00 0.00 89 1015.2
20260505050903 46 312 3.5 5.2 0.00 0.00 0.00 89 1015.3
20260505040903 46 328 1.7 3.5 0.00 0.00 0.00 89 1014.9
20260505040004 46 357 2.6 5.2 0.00 0.00 0.00 89 1014.7
20260505035403 47 5 1.7 2.6 0.00 0.00 0.00 89 1014.7
20260505034503 47 354 2.6 4.3 0.00 0.00 0.00 90 1014.8
20260505033603 47 354 1.7 4.3 0.00 0.00 0.00 90 1014.8
20260505032703 47 343 3.5 5.2 0.00 0.00 0.00 90 1015.0
20260505032017 47 346 3.5 5.2 0.00 0.00 0.00 90 1015.1
20260505030903 47 354 3.5 5.2 0.00 0.00 0.00 91 1015.0
20260505030218 46 357 2.6 5.2 0.00 0.00 0.00 92 1015.0
20260505025403 46 2 3.5 6.1 0.00 0.00 0.00 92 1015.1
20260505024717 46 5 2.6 4.3 0.00 0.00 0.00 92 1015.1
20260505023603 46 334 1.7 2.6 0.00 0.00 0.00 92 1015.2
20260505022918 46 321 2.6 4.3 0.00 0.00 0.00 92 1015.0
20260505021803 46 315 2.6 3.5 0.00 0.00 0.00 91 1015.2
20260505020903 46 313 1.7 3.5 0.00 0.00 0.00 91 1015.1
20260505020003 46 316 2.6 3.5 0.00 0.00 0.00 91 1015.2
20260505015403 46 324 1.7 3.5 0.00 0.00 0.00 90 1015.1
20260505014503 47 334 0.9 2.6 0.00 0.00 0.00 90 1015.2
20260505013603 47 333 1.7 4.3 0.00 0.00 0.00 90 1015.3
20260505012703 47 16 1.7 4.3 0.00 0.00 0.00 89 1015.5
20260505011803 47 8 1.7 3.5 0.00 0.00 0.00 89 1015.4
20260505010903 48 21 2.6 4.3 0.00 0.00 0.00 89 1015.3
20260505010003 48 10 1.7 3.5 0.00 0.00 0.00 89 1015.4
20260505005403 48 1 0.9 2.6 0.00 0.00 0.00 90 1015.3
20260505004503 48 356 1.7 2.6 0.00 0.00 0.00 90 1015.6
20260505003603 48 344 1.7 2.6 0.00 0.00 0.00 90 1015.6
20260505002703 48 342 1.7 3.5 0.00 0.00 0.00 90 1015.6
20260505002018 47 334 1.7 3.5 0.00 0.00 0.00 90 1015.7
20260505000903 47 310 1.7 3.5 0.00 0.00 0.00 89 1015.9
20260505000004 47 306 1.7 2.6 0.00 0.00 0.00 89 1015.9
20260504235403 47 319 0.9 1.7 0.00 0.00 0.00 88 1016.0
20260504234503 48 19 0.0 0.9 0.00 0.00 0.00 87 1016.0
20260504233817 49 32 0.9 3.5 0.00 0.00 0.00 87 1015.9
20260504232703 49 75 1.7 2.6 0.00 0.00 0.00 86 1015.8
20260504231803 50 82 2.6 3.5 0.00 0.00 0.00 86 1015.7
20260504230903 50 84 1.7 3.5 0.00 0.00 0.00 86 1015.7
20260504230005 50 70 1.7 5.2 0.00 0.00 0.00 86 1015.7
20260504225403 50 81 2.6 5.2 0.00 0.00 0.00 86 1015.7
20260504224503 50 82 3.5 5.2 0.00 0.00 0.00 86 1015.7
20260504223603 50 87 1.7 2.6 0.00 0.00 0.00 86 1015.8
20260504222918 50 81 2.6 4.3 0.00 0.00 0.00 86 1015.8
20260504221803 50 87 3.5 5.2 0.00 0.00 0.00 86 1015.8
20260504221117 50 91 2.6 4.3 0.00 0.00 0.00 86 1015.9
20260504220218 50 79 2.6 3.5 0.00 0.00 0.00 86 1015.9
20260504215618 50 72 2.6 3.5 0.00 0.00 0.00 85 1015.9
20260504214504 51 69 2.6 3.5 0.00 0.00 0.00 85 1015.8
20260504213603 51 66 2.6 5.2 0.00 0.00 0.00 85 1015.9
20260504212703 51 68 2.6 4.3 0.00 0.00 0.00 84 1016.0
20260504211803 51 74 2.6 4.3 0.00 0.00 0.00 84 1016.0
20260504210903 52 82 1.7 2.6 0.00 0.00 0.00 85 1016.0
20260504210004 52 71 1.7 3.5 0.00 0.00 0.00 85 1016.1
20260504205404 52 74 0.9 1.7 0.00 0.00 0.00 85 1016.1
20260504204503 52 85 2.6 5.2 0.00 0.00 0.00 85 1016.0
20260504203818 52 79 2.6 5.2 0.00 0.00 0.00 85 1016.0
20260504202703 52 81 2.6 4.3 0.00 0.00 0.00 84 1015.9
20260504193817 54 81 0.9 1.7 0.00 0.00 0.00 82 1015.3
20260504191803 55 90 1.7 2.6 0.00 0.00 0.00 80 1015.4
20260504191118 55 87 2.6 5.2 0.00 0.00 0.00 79 1015.4
20260504190004 56 87 1.7 3.5 0.00 0.00 0.00 78 1015.3
20260504185617 56 95 1.7 3.5 0.00 0.00 0.00 78 1015.2
20260504184503 57 93 3.5 6.1 0.00 0.01 0.00 78 1015.1
20260504183603 57 89 3.5 6.1 0.00 0.02 0.00 78 1015.1
20260504174504 57 88 4.3 7.0 0.00 0.04 0.00 77 1014.7
20260504173818 57 90 4.3 7.0 0.00 0.04 0.00 78 1014.7
20260504172703 57 87 4.3 7.8 0.00 0.04 0.00 77 1014.7
20260504171803 58 94 3.5 7.0 0.00 0.04 0.00 78 1014.8
20260504170903 57 96 3.5 5.2 0.00 0.04 0.00 77 1014.8
20260504150903 58 70 4.3 8.7 0.00 0.06 0.00 76 1015.1
20260504140903 57 76 3.5 5.2 0.00 0.06 0.00 79 1015.6